Weather History for KBKD - April, 2014

Change the Weather History Date:

Wednesday, April 9, 2014

  Actual Average (KABI) Record (KABI)
Temperature  
Mean Temperature 70 °F 63 °F  
Max Temperature 89 °F 76 °F 99 °F (2011)
Min Temperature 51 °F 50 °F 25 °F (1973)
Degree Days  
Heating Degree Days 0 5  
Month to date heating degree days 49  
Since 1 July heating degree days 2480  
Cooling Degree Days 5 3  
Month to date cooling degree days 19  
Year to date cooling degree days 53  
Growing Degree Days 20 (Base 50)    
Moisture  
Dew Point 31 °F    
Average Humidity 27    
Maximum Humidity 51    
Minimum Humidity 10    
Precipitation  
Precipitation 0.00 in 0.05 in 1.66 in (1926)
Month to date precipitation 0.40  
Year to date precipitation 4.52  
Sea Level Pressure  
Sea Level Pressure 30.08 in    
Wind  
Wind Speed 10 mph (South)    
Max Wind Speed 21 mph    
Max Gust Speed 32 mph    
Visibility 10 miles    
Events      
T = Trace of Precipitation, MM = Missing Value Source: NWS Daily Summary

Daily Weather History Graph

Daily Weather History Graph

Search for Another Location

Airport or City:

Trip Planner

Search our weather history database for the weather conditions in past years. The results will help you decide how hot, cold, wet, or windy it might be!

Date:

Astronomy

Apr. 09, 2014 Rise Set
Actual Time 7:13 AM CDT 8:01 PM CDT
Civil Twilight 6:48 AM CDT 8:26 PM CDT
Nautical Twilight 6:18 AM CDT 8:56 PM CDT
Astronomical Twilight 5:48 AM CDT 9:26 PM CDT
Moon 3:06 PM CDT (4/9) 3:46 AM CDT (4/9)
Length of Visible Light 13h 38m
Length of Day
12h 48m
Waxing Gibbous, 72% of the Moon is Illuminated
Apr 9
Waxing Gibbous
Apr 15
Full
Apr 22
Last Quarter
Apr 29
New
May 6
First Quarter

Hourly Weather History & Observations

Time (CDT) Temp. Dew Point Humidity Pressure Visibility Wind Dir Wind Speed Gust Speed Precip Events Conditions
12:15 AM 58.1 °F 32.0 °F 37% 30.18 in 10.0 mi SSE 6.9 mph - N/A   Clear
12:35 AM 57.4 °F 32.0 °F 38% 30.18 in 10.0 mi SE 6.9 mph - N/A   Clear
12:55 AM 55.2 °F 33.4 °F 44% 30.18 in 10.0 mi SE 5.8 mph - N/A   Clear
1:15 AM 55.9 °F 33.4 °F 43% 30.18 in 10.0 mi SE 9.2 mph - N/A   Clear
1:35 AM 54.5 °F 33.3 °F 45% 30.18 in 10.0 mi SSE 8.1 mph - N/A   Clear
1:55 AM 54.3 °F 33.6 °F 46% 30.18 in 10.0 mi SSE 9.2 mph - N/A   Clear
2:15 AM 55.0 °F 34.3 °F 46% 30.18 in 10.0 mi South 6.9 mph - N/A   Clear
2:35 AM 54.0 °F 33.8 °F 46% 30.17 in 10.0 mi SSE 10.4 mph - N/A   Clear
2:55 AM 54.1 °F 32.9 °F 45% 30.17 in 10.0 mi SE 10.4 mph - N/A   Clear
3:15 AM 52.9 °F 33.1 °F 47% 30.17 in 10.0 mi SE 9.2 mph - N/A   Clear
3:35 AM 53.2 °F 33.6 °F 47% 30.16 in 10.0 mi SSE 8.1 mph - N/A   Clear
3:55 AM 53.8 °F 34.0 °F 47% 30.16 in 10.0 mi SSE 6.9 mph - N/A   Clear
4:15 AM 52.9 °F 34.2 °F 49% 30.16 in 10.0 mi SSE 5.8 mph - N/A   Clear
4:55 AM 52.9 °F 33.3 °F 47% 30.15 in 10.0 mi South 5.8 mph - N/A   Clear
5:15 AM 54.0 °F 33.3 °F 46% 30.15 in 10.0 mi SSE 8.1 mph - N/A   Clear
5:35 AM 53.2 °F 33.8 °F 48% 30.16 in 10.0 mi South 6.9 mph - N/A   Clear
5:55 AM 53.2 °F 34.0 °F 48% 30.16 in 10.0 mi SSE 4.6 mph - N/A   Clear
6:15 AM 51.6 °F 34.0 °F 51% 30.15 in 10.0 mi South 5.8 mph - N/A   Clear
6:35 AM 51.6 °F 34.2 °F 51% 30.16 in 10.0 mi SSE 3.5 mph - N/A   Clear
6:55 AM 52.2 °F 34.2 °F 50% 30.16 in 10.0 mi SSE 4.6 mph - N/A   Clear
7:15 AM 51.4 °F 33.8 °F 51% 30.16 in 10.0 mi SSE 6.9 mph - N/A   Clear
7:35 AM 52.2 °F 34.0 °F 50% 30.17 in 10.0 mi South 8.1 mph - N/A   Clear
7:55 AM 53.2 °F 34.3 °F 49% 30.17 in 10.0 mi South 9.2 mph - N/A   Clear
8:15 AM 55.6 °F 34.0 °F 44% 30.17 in 10.0 mi South 5.8 mph - N/A   Clear
8:35 AM 59.7 °F 32.5 °F 36% 30.18 in 10.0 mi South 8.1 mph - N/A   Clear
8:55 AM 62.4 °F 32.9 °F 33% 30.17 in 10.0 mi South 13.8 mph 18.4 mph N/A   Clear
9:15 AM 64.2 °F 32.9 °F 31% 30.18 in 10.0 mi South 13.8 mph 19.6 mph N/A   Clear
9:35 AM 65.3 °F 33.1 °F 30% 30.18 in 10.0 mi South 16.1 mph - N/A   Clear
9:55 AM 67.3 °F 34.0 °F 29% 30.18 in 10.0 mi South 10.4 mph - N/A   Clear
10:15 AM 70.5 °F 33.4 °F 26% 30.18 in 10.0 mi SSW 12.7 mph 17.3 mph N/A   Clear
10:35 AM 72.5 °F 32.7 °F 23% 30.18 in 10.0 mi SSW 15.0 mph - N/A   Clear
10:55 AM 74.3 °F 32.2 °F 21% 30.18 in 10.0 mi SSW 13.8 mph - N/A   Clear
11:15 AM 76.3 °F 32.0 °F 20% 30.17 in 10.0 mi SSW 10.4 mph 16.1 mph N/A   Clear
11:35 AM 78.4 °F 32.0 °F 18% 30.16 in 10.0 mi SSW 12.7 mph - N/A   Clear
11:55 AM 80.6 °F 31.1 °F 17% 30.16 in 10.0 mi SSW 12.7 mph 17.3 mph N/A   Clear
12:15 PM 81.7 °F 30.0 °F 15% 30.15 in 10.0 mi SSW 13.8 mph 19.6 mph N/A   Clear
12:35 PM 82.9 °F 29.5 °F 14% 30.13 in 10.0 mi SW 11.5 mph 20.7 mph N/A   Clear
12:55 PM 84.9 °F 29.5 °F 13% 30.12 in 10.0 mi SSW 9.2 mph 18.4 mph N/A   Clear
1:15 PM 85.6 °F 30.2 °F 14% 30.11 in 10.0 mi SW 15.0 mph - N/A   Clear
1:35 PM 86.7 °F 30.0 °F 13% 30.10 in 10.0 mi SSW 15.0 mph 19.6 mph N/A   Clear
1:55 PM 87.4 °F 30.2 °F 13% 30.08 in 10.0 mi SW 12.7 mph 19.6 mph N/A   Clear
2:15 PM 88.2 °F 29.1 °F 12% 30.08 in 10.0 mi SSW 15.0 mph 21.9 mph N/A   Clear
2:35 PM 87.6 °F 27.5 °F 11% 30.07 in 10.0 mi South 15.0 mph 19.6 mph N/A   Clear
2:55 PM 88.2 °F 27.9 °F 11% 30.05 in 10.0 mi SSW 13.8 mph 21.9 mph N/A   Clear
3:15 PM 88.3 °F 26.8 °F 11% 30.04 in 10.0 mi South 15.0 mph 23.0 mph N/A   Clear
3:35 PM 88.7 °F 27.3 °F 11% 30.03 in 10.0 mi South 16.1 mph 23.0 mph N/A   Clear
3:55 PM 88.9 °F 27.7 °F 11% 30.01 in 10.0 mi SW 13.8 mph 23.0 mph N/A   Clear
4:15 PM 89.2 °F 26.6 °F 10% 30.00 in 10.0 mi South 13.8 mph 24.2 mph N/A   Clear
4:35 PM 88.7 °F 26.6 °F 11% 29.98 in 10.0 mi South 18.4 mph 26.5 mph N/A   Clear
4:55 PM 89.6 °F 26.4 °F 10% 29.98 in 10.0 mi South 16.1 mph - N/A   Clear
5:15 PM 89.6 °F 27.3 °F 11% 29.97 in 10.0 mi South 15.0 mph 24.2 mph N/A   Clear
5:35 PM 89.4 °F 27.7 °F 11% 29.97 in 10.0 mi South 17.3 mph 26.5 mph N/A   Clear
5:55 PM 89.4 °F 27.7 °F 11% 29.96 in 10.0 mi South 17.3 mph 31.1 mph N/A   Clear
6:15 PM 88.7 °F 27.5 °F 11% 29.96 in 10.0 mi SSW 16.1 mph 23.0 mph N/A   Clear
6:35 PM 88.0 °F 27.5 °F 11% 29.96 in 10.0 mi South 16.1 mph 25.3 mph N/A   Clear
6:55 PM 87.3 °F 27.1 °F 11% 29.95 in 10.0 mi South 16.1 mph 24.2 mph N/A   Clear
7:15 PM 86.4 °F 27.0 °F 12% 29.95 in 10.0 mi South 15.0 mph 23.0 mph N/A   Clear
7:35 PM 85.5 °F 27.0 °F 12% 29.95 in 10.0 mi South 15.0 mph 20.7 mph N/A   Clear
7:55 PM 84.0 °F 27.0 °F 13% 29.95 in 10.0 mi South 11.5 mph 17.3 mph N/A   Clear
8:15 PM 81.7 °F 27.3 °F 14% 29.95 in 10.0 mi SSE 11.5 mph - N/A   Clear
8:35 PM 80.1 °F 28.2 °F 15% 29.95 in 10.0 mi SSE 11.5 mph - N/A   Clear
8:55 PM 77.9 °F 28.2 °F 16% 29.95 in 10.0 mi SSE 11.5 mph - N/A   Clear
9:15 PM 76.8 °F 28.8 °F 17% 29.95 in 10.0 mi SSE 12.7 mph - N/A   Clear
9:35 PM 76.5 °F 30.0 °F 18% 29.96 in 10.0 mi SSE 17.3 mph 21.9 mph N/A   Clear
9:55 PM 76.8 °F 32.0 °F 19% 29.96 in 10.0 mi SSE 19.6 mph 23.0 mph N/A   Clear
10:15 PM 76.3 °F 32.9 °F 21% 29.96 in 10.0 mi SSE 20.7 mph 27.6 mph N/A   Clear
10:35 PM 76.3 °F 32.9 °F 21% 29.96 in 10.0 mi South 17.3 mph 28.8 mph N/A   Clear
10:55 PM 75.4 °F 32.9 °F 21% 29.96 in 10.0 mi South 19.6 mph 26.5 mph N/A   Clear
11:15 PM 74.8 °F 32.9 °F 22% 29.96 in 10.0 mi South 18.4 mph 27.6 mph N/A   Clear
11:35 PM 73.9 °F 33.1 °F 22% 29.96 in 10.0 mi South 18.4 mph 26.5 mph N/A   Clear
11:55 PM 73.4 °F 32.9 °F 23% 29.96 in 10.0 mi South 18.4 mph 32.2 mph N/A   Clear